Fort Sill, OK

7:11 PM CST on November 18, 2019 (GMT -0600)
Post Army Air Field

Weather History for KFSI - October, 2019

Change the Weather History Date:

Monday, October 14, 2019

  Actual Average Record
Temperature  
Mean Temperature 70 °F -  
Max Temperature 86 °F 79 °F 96 °F (2015)
Min Temperature 55 °F 53 °F 36 °F (1969)
Cooling Degree Days 4    
Growing Degree Days 20 (Base 50)    
Moisture  
Dew Point 56 °F    
Average Humidity 69    
Maximum Humidity 100    
Minimum Humidity 39    
Precipitation  
Precipitation 0.00 in - - ()
Sea Level Pressure  
Sea Level Pressure 29.88 in    
Wind  
Wind Speed 8 mph (SSE)    
Max Wind Speed 16 mph    
Max Gust Speed 22 mph    
Visibility 10 miles    
Events      
Averages and records for this station are not official NWS values.
T = Trace of Precipitation, MM = Missing Value Source: NWS Daily Summary

Daily Weather History Graph

Daily Weather History Graph

Search for Another Location

Airport or City:

Astronomy

Oct. 14, 2019 Rise Set
Actual Time 7:38 AM CDT 7:00 PM CDT
Civil Twilight 7:12 AM CDT 7:25 PM CDT
Nautical Twilight 6:43 AM CDT 7:54 PM CDT
Astronomical Twilight 6:14 AM CDT 8:24 PM CDT
Moon 7:51 PM CDT (10/14) 8:12 AM CDT (10/14)
Length of Visible Light 12h 12m
Length of Day
11h 22m
Full, 99% of the Moon is Illuminated
Oct 14
Full
Oct 21
Last Quarter
Oct 27
New
Nov 4
First Quarter
Nov 12
Full

Hourly Weather History & Observations

Time (CDT) Temp. Heat Index Dew Point Humidity Pressure Visibility Wind Dir Wind Speed Gust Speed Precip Events Conditions
1:56 AM 56.1 °F - 48.7 °F 76% 29.93 in 10.0 mi SE 5.8 mph - N/A   Clear
2:56 AM 56.1 °F - 49.3 °F 78% 29.93 in 10.0 mi SSE 5.8 mph - N/A   Clear
3:56 AM 56.5 °F - 50.0 °F 79% 29.91 in 10.0 mi SE 5.8 mph - N/A   Clear
4:56 AM 55.6 °F - 50.2 °F 82% 29.91 in 10.0 mi SSE 6.9 mph - N/A   Clear
5:56 AM 55.4 °F - 50.7 °F 84% 29.91 in 10.0 mi SE 5.8 mph - N/A   Clear
6:56 AM 55.2 °F - 51.1 °F 86% 29.93 in 10.0 mi SSE 8.1 mph - N/A   Clear
7:56 AM 55.6 °F - 51.8 °F 87% 29.93 in 10.0 mi SSE 6.9 mph - N/A   Clear
8:56 AM 57.7 °F - 52.9 °F 84% 29.94 in 10.0 mi SSE 8.1 mph - N/A   Clear
9:56 AM 61.3 °F - 54.3 °F 78% 29.95 in 10.0 mi SSE 11.5 mph - N/A   Clear
10:56 AM 68.0 °F - 55.8 °F 65% 29.94 in 10.0 mi South 11.5 mph - N/A   Clear
11:56 AM 71.2 °F - 56.1 °F 59% 29.92 in 9.0 mi South 8.1 mph - N/A   Clear
12:56 PM 76.1 °F - 56.7 °F 51% 29.89 in 10.0 mi South 11.5 mph - N/A   Partly Cloudy
1:56 PM 79.3 °F - 57.9 °F 48% 29.88 in 8.0 mi SSW 9.2 mph - N/A   Clear
2:56 PM 81.9 °F 81.8 °F 57.7 °F 44% 29.83 in 10.0 mi SSE 13.8 mph - N/A   Partly Cloudy
3:56 PM 84.9 °F 84.1 °F 57.2 °F 39% 29.81 in 10.0 mi South 12.7 mph - N/A   Clear
4:56 PM 83.8 °F 83.3 °F 57.6 °F 41% 29.80 in 10.0 mi South 16.1 mph 20.7 mph N/A   Clear
5:56 PM 84.6 °F 84.2 °F 58.8 °F 42% 29.80 in 10.0 mi South 15.0 mph 21.9 mph N/A   Partly Cloudy
6:56 PM 79.0 °F - 59.2 °F 51% 29.81 in 10.0 mi South 11.5 mph - N/A   Clear
7:56 PM 74.7 °F - 58.8 °F 58% 29.83 in 10.0 mi SSE 11.5 mph - N/A   Clear
8:56 PM 71.1 °F - 60.8 °F 70% 29.85 in 10.0 mi SSE 11.5 mph - N/A   Clear
9:56 PM 68.0 °F - 63.3 °F 85% 29.88 in 10.0 mi SSE 9.2 mph - N/A   Clear
10:56 PM 65.8 °F - 64.0 °F 94% 29.88 in 10.0 mi SSE 6.9 mph - N/A   Clear
11:56 PM 64.6 °F - 64.6 °F 100% 29.88 in 10.0 mi SSE 8.1 mph - N/A   Clear